Location: Klickitat County Star Party
(45.8642°N, 120.6771°W)
Time: 10:25:08
(UTC-07:00)

SO-50 - Pass Details

Date: 03 June 2019
Orbit: 586 x 700 km, 64.6° (Epoch: 18 June)

Event Time Altitude Azimuth Distance (km) Brightness Sun altitude
Rises 00:35:44 0° 323° (NW) 3,084 ? -21.6°
Reaches altitude 10° 00:38:07 10° 324° (NW) 2,156 ? -21.6°
Maximum altitude 00:43:03 85° 54° (NE) 690 ? -21.7°
Enters shadow 00:44:15 52° 138° (SE) 848 ? -21.7°
